Total_Precipitation_Accumulation
1.61 1.83 2.02 2.23 2.47 2.65 2.79 3.01 3.24 3.56 3.77 4.09 4.40 4.60 4.73 4.90 4.95 4.93 4.97 4.99 4.99 5.10 5.14 4.92 4.89 4.80 4.68 4.48 4.39 4.24 4.01 3.76 3.75 3.63 3.18 2.59 2.22 2.15 2.06 2.12 2.37 2.40 2.27
1.59 1.95 2.28 2.71 2.94 3.04 3.09 3.31 3.62 3.89 4.04 4.42 4.92 5.33 5.47 5.54 5.58 5.57 5.71 5.79 5.81 5.94 5.95 5.91 5.70 5.53 5.27 4.79 4.42 4.25 4.01 3.65 3.77 3.80 3.72 3.02 2.53 2.06 1.68 1.78 1.86 1.95 2.14
1.84 2.08 2.47 2.77 2.92 3.02 3.13 3.32 3.77 4.17 4.59 5.06 5.62 6.05 6.24 6.26 6.15 5.88 5.98 6.10 5.99 6.06 6.19 6.14 5.93 5.64 5.11 4.57 4.39 4.33 4.15 3.91 3.84 3.74 3.90 3.36 2.82 2.38 1.90 1.65 1.56 1.68 1.78
1.80 2.09 2.33 2.62 2.77 2.90 3.13 3.35 3.75 4.37 4.84 5.19 5.82 6.42 6.67 6.87 6.96 6.75 6.44 6.21 5.96 5.83 5.77 5.59 5.18 4.81 4.46 4.18 4.04 4.09 3.96 3.93 3.76 3.67 3.39 3.15 2.87 2.58 2.18 1.76 1.55 1.58 1.61
1.59 1.93 2.07 2.35 2.68 2.78 2.89 3.14 3.69 4.28 4.94 5.54 6.05 6.59 7.03 7.25 7.20 6.79 6.35 5.83 5.44 5.01 4.64 4.32 4.11 4.02 3.83 3.63 3.51 3.51 3.41 3.26 3.17 3.16 3.11 3.04 2.82 2.48 2.24 1.96 1.75 1.72 1.56
1.43 1.58 1.74 1.97 2.33 2.43 2.64 2.97 3.41 4.13 4.81 5.40 5.94 6.40 6.78 6.83 6.51 5.98 5.45 5.09 4.73 4.24 3.76 3.50 3.30 3.18 3.01 2.81 2.70 2.68 2.70 2.78 2.83 2.89 2.87 2.81 2.77 2.60 2.51 2.29 2.04 1.92 1.81
1.31 1.49 1.59 1.76 1.99 2.16 2.42 2.78 3.33 3.97 4.39 4.86 5.34 5.65 5.86 5.93 5.84 5.49 5.04 4.70 4.29 3.86 3.39 2.96 2.74 2.51 2.31 2.20 2.18 2.16 2.16 2.27 2.39 2.49 2.53 2.52 2.46 2.43 2.50 2.56 2.31 2.07 1.92
1.41 1.62 1.74 1.86 2.00 2.12 2.29 2.64 3.09 3.54 3.78 3.99 4.38 4.66 4.77 4.83 4.69 4.44 4.08 3.80 3.51 3.24 2.93 2.49 2.14 1.92 1.78 1.68 1.77 1.80 1.82 1.88 1.97 2.05 2.22 2.22 2.16 2.26 2.36 2.45 2.52 2.40 2.09
1.40 1.61 1.77 1.88 1.98 2.00 2.16 2.34 2.60 2.84 3.07 3.24 3.43 3.58 3.58 3.50 3.39 3.19 2.94 2.74 2.55 2.29 2.15 1.95 1.74 1.61 1.57 1.57 1.60 1.59 1.58 1.67 1.76 1.82 1.95 2.03 2.02 2.09 2.17 2.31 2.43 2.49 2.32
1.40 1.56 1.64 1.70 1.75 1.69 1.79 1.92 2.14 2.27 2.43 2.53 2.58 2.50 2.51 2.45 2.31 2.15 2.05 1.91 1.72 1.59 1.57 1.53 1.52 1.45 1.39 1.44 1.52 1.46 1.45 1.56 1.58 1.58 1.68 1.77 1.82 1.93 2.02 2.14 2.24 2.30 2.26
1.30 1.35 1.40 1.44 1.46 1.39 1.40 1.51 1.68 1.88 1.99 1.99 2.02 1.99 1.92 1.74 1.64 1.54 1.49 1.42 1.33 1.31 1.31 1.32 1.33 1.32 1.30 1.32 1.34 1.31 1.32 1.38 1.53 1.61 1.65 1.71 1.75 1.82 1.81 1.83 1.89 2.02 2.14
1.30 1.23 1.22 1.23 1.23 1.19 1.17 1.24 1.32 1.41 1.46 1.52 1.54 1.54 1.47 1.37 1.32 1.25 1.21 1.21 1.19 1.18 1.20 1.20 1.20 1.24 1.31 1.34 1.29 1.20 1.20 1.28 1.41 1.50 1.58 1.57 1.55 1.61 1.68 1.73 1.72 1.77 1.89
1.36 1.30 1.22 1.17 1.20 1.28 1.28 1.14 1.14 1.20 1.20 1.23 1.25 1.25 1.31 1.27 1.23 1.25 1.25 1.23 1.19 1.18 1.15 1.10 1.13 1.20 1.25 1.26 1.23 1.18 1.16 1.18 1.25 1.31 1.33 1.34 1.37 1.34 1.38 1.44 1.50 1.52 1.54
1.35 1.38 1.43 1.37 1.27 1.29 1.40 1.28 1.14 1.13 1.19 1.18 1.15 1.08 1.07 1.12 1.15 1.15 1.16 1.12 1.09 1.13 1.17 1.12 1.08 1.08 1.02 0.96 0.93 0.94 0.99 0.99 1.01 1.04 1.06 1.12 1.21 1.24 1.27 1.26 1.30 1.33 1.45
1.50 1.48 1.44 1.43 1.35 1.29 1.32 1.30 1.23 1.15 1.33 1.31 1.26 1.16 1.06 1.07 1.13 1.11 1.06 1.02 0.99 0.93 0.95 0.96 0.92 0.86 0.74 0.65 0.65 0.70 0.74 0.80 0.82 0.84 0.82 0.82 0.97 1.08 1.05 0.97 1.08 1.22 1.38
1.67 1.66 1.59 1.60 1.60 1.50 1.43 1.36 1.34 1.30 1.38 1.44 1.48 1.48 1.37 1.31 1.31 1.21 1.08 1.07 1.05 0.96 0.87 0.81 0.80 0.74 0.58 0.58 0.55 0.61 0.74 0.82 0.81 0.83 0.83 0.75 0.78 0.81 0.80 0.79 0.92 1.11 1.16
1.91 1.89 1.84 1.79 1.80 1.76 1.66 1.55 1.46 1.43 1.45 1.50 1.51 1.49 1.47 1.45 1.41 1.24 1.11 1.11 1.08 1.05 1.01 0.90 0.84 0.82 0.75 0.61 0.51 0.55 0.70 0.82 0.83 0.83 0.81 0.70 0.64 0.71 0.73 0.74 0.78 0.86 0.87
1.87 1.88 1.91 1.88 1.87 1.77 1.68 1.60 1.52 1.52 1.55 1.53 1.50 1.46 1.35 1.34 1.28 1.19 1.18 1.14 1.08 1.05 1.00 0.93 0.86 0.78 0.62 0.47 0.41 0.43 0.58 0.76 0.80 0.79 0.79 0.80 0.74 0.69 0.70 0.69 0.74 0.83 0.88
1.99 1.96 1.92 1.82 1.77 1.73 1.67 1.60 1.58 1.59 1.60 1.55 1.41 1.31 1.23 1.22 1.15 1.13 1.08 1.02 0.96 0.94 0.88 0.79 0.76 0.74 0.60 0.39 0.33 0.39 0.57 0.73 0.74 0.69 0.63 0.67 0.70 0.68 0.65 0.71 0.85 0.92 0.97
1.83 1.73 1.58 1.49 1.56 1.60 1.57 1.54 1.52 1.50 1.50 1.31 1.10 1.01 1.02 1.02 0.99 0.94 0.90 0.87 0.85 0.85 0.78 0.68 0.70 0.71 0.68 0.50 0.40 0.43 0.55 0.69 0.69 0.68 0.64 0.58 0.57 0.57 0.59 0.70 0.84 0.93 0.94
1.34 1.26 1.20 1.26 1.36 1.40 1.36 1.36 1.30 1.29 1.25 1.15 1.03 0.95 0.91 0.85 0.82 0.82 0.83 0.80 0.76 0.80 0.79 0.78 0.74 0.68 0.59 0.46 0.38 0.39 0.45 0.58 0.64 0.65 0.68 0.61 0.50 0.47 0.50 0.63 0.71 0.78 0.78
1.00 0.95 0.99 1.05 1.10 1.07 1.08 1.17 1.18 1.09 1.02 1.05 1.00 0.95 0.84 0.72 0.71 0.84 0.83 0.80 0.82 0.84 0.82 0.79 0.73 0.61 0.51 0.40 0.33 0.33 0.38 0.46 0.60 0.69 0.70 0.61 0.50 0.46 0.49 0.57 0.63 0.66 0.76
0.78 0.80 0.82 0.88 0.97 0.99 1.01 1.07 1.05 0.96 0.95 1.03 1.01 0.90 0.76 0.78 0.77 0.83 0.83 0.77 0.76 0.71 0.65 0.63 0.63 0.57 0.50 0.42 0.33 0.35 0.40 0.46 0.53 0.61 0.57 0.53 0.51 0.50 0.60 0.63 0.64 0.75 0.97
0.64 0.70 0.74 0.76 0.84 0.86 0.88 0.94 0.87 0.86 1.02 1.13 1.07 0.93 0.81 0.75 0.73 0.72 0.66 0.62 0.62 0.61 0.57 0.55 0.54 0.51 0.50 0.46 0.43 0.44 0.43 0.44 0.50 0.54 0.54 0.59 0.63 0.65 0.74 0.83 0.93 0.97 1.03
0.68 0.71 0.74 0.74 0.71 0.70 0.74 0.72 0.74 0.87 1.12 1.10 0.98 0.86 0.72 0.65 0.63 0.57 0.50 0.45 0.44 0.41 0.42 0.41 0.40 0.44 0.46 0.40 0.39 0.40 0.40 0.41 0.41 0.44 0.61 0.81 0.87 0.94 1.00 1.03 1.07 1.12 1.07
0.60 0.71 0.70 0.65 0.65 0.69 0.71 0.66 0.68 0.80 1.00 1.02 0.83 0.69 0.59 0.52 0.44 0.40 0.39 0.32 0.27 0.24 0.23 0.23 0.24 0.26 0.27 0.25 0.26 0.29 0.33 0.35 0.38 0.44 0.70 0.82 0.87 0.95 0.98 0.98 1.01 1.07 1.10